Vorticity
15 19 22 24 24 23 21 19 16 14 12 11 11 10 10 9 8 7 6 6 6 6 7 7 7 8 9 12 15 18 19 21 22 23 24 25 26 26 25 25 23 22 21 20 19 19 18 17 16 15 14 13 11 10 10 10 10 11 11 12 13 13 14 15 16 16 16 16 16
14 18 21 23 24 23 22 20 18 16 14 13 12 12 11 10 9 8 7 6 6 6 6 6 7 8 11 14 18 20 22 24 27 29 31 32 33 33 32 31 29 26 24 22 21 20 20 19 18 17 16 15 13 12 11 10 11 11 11 11 12 12 13 14 15 16 16 17 16
13 16 19 22 23 23 23 21 19 17 16 14 14 13 12 11 10 8 7 6 6 6 6 5 7 10 13 17 21 25 29 32 36 38 40 41 40 40 39 37 35 32 28 25 23 22 21 21 20 19 18 17 15 14 12 11 11 11 12 11 11 12 13 14 15 15 16 16 17
12 15 19 21 23 23 23 21 19 18 17 16 15 14 13 11 9 8 7 6 6 6 5 5 8 13 18 23 27 33 38 43 45 45 46 45 45 44 43 42 40 37 33 29 25 23 22 21 21 20 19 18 17 15 14 12 12 12 12 11 11 11 12 13 14 15 15 16 16
12 15 18 21 23 23 22 21 19 18 18 17 16 14 12 10 8 7 6 6 5 5 5 7 12 17 24 30 37 42 46 48 47 45 44 44 44 44 44 44 43 40 37 33 28 25 23 22 21 21 20 19 18 17 15 14 14 13 13 12 11 11 11 12 13 14 15 15 16
11 15 18 22 23 22 22 21 20 19 18 17 15 13 11 8 7 6 6 6 5 5 6 10 17 24 32 39 44 47 47 45 42 40 39 38 39 40 42 43 43 42 40 36 31 28 25 23 22 21 20 20 19 17 16 15 15 15 14 12 11 11 11 12 13 13 14 15 16
12 15 19 22 22 22 21 20 20 18 17 16 14 11 9 7 6 6 6 5 4 6 10 16 24 32 39 45 46 45 42 39 37 36 35 35 36 37 39 41 43 43 42 39 34 30 27 24 22 21 20 19 19 18 17 17 17 16 14 12 12 11 11 11 12 13 13 14 15
13 16 19 21 22 22 21 20 19 18 16 14 12 10 8 6 6 6 5 5 5 9 15 23 32 39 44 47 45 42 39 37 37 37 36 36 36 37 38 40 42 43 43 41 37 32 28 25 23 21 20 19 18 18 18 18 18 16 14 13 12 11 11 11 12 12 13 13 15
13 16 19 21 22 22 21 20 19 17 15 13 11 9 7 6 6 6 5 5 7 13 21 30 38 44 46 46 43 42 41 42 42 42 42 41 40 39 39 40 42 43 43 42 38 33 29 26 23 21 20 19 18 19 19 19 18 16 14 13 12 12 11 11 11 12 12 13 14
12 15 18 20 22 22 21 20 18 16 14 12 9 8 7 6 6 6 6 6 10 18 27 37 43 46 47 45 45 46 48 50 50 49 48 47 45 43 42 42 42 43 42 41 37 33 29 26 23 21 20 19 19 19 19 19 17 15 14 13 12 12 12 12 11 12 12 13 14
12 14 17 20 22 22 21 20 18 16 13 10 8 7 6 6 6 6 6 7 14 24 33 42 46 47 47 47 51 55 57 58 57 55 52 50 49 47 45 43 42 41 40 38 36 32 29 25 23 21 20 19 19 19 19 17 16 15 14 13 13 12 12 12 11 11 12 12 13
11 14 17 20 21 22 21 20 17 14 12 9 8 7 7 7 6 6 6 10 19 29 39 47 49 49 49 53 58 61 60 56 53 50 48 46 44 43 42 40 39 38 37 36 34 31 28 25 23 22 21 20 20 19 18 16 15 15 14 14 13 12 12 12 12 11 12 12 13
10 13 17 20 22 22 21 19 16 13 11 9 7 7 7 7 6 6 8 13 23 34 43 51 50 51 53 57 58 54 48 40 37 34 32 31 31 32 33 34 34 35 34 34 32 30 28 26 24 22 21 20 19 18 17 16 15 15 14 14 13 12 12 12 12 12 12 12 13
10 13 17 20 22 22 21 18 15 12 10 8 7 7 7 7 6 6 10 16 27 38 48 53 52 52 53 53 47 38 29 22 19 18 18 18 18 21 24 29 33 34 35 34 33 31 29 27 25 23 22 20 19 17 16 15 15 15 14 14 13 13 13 13 12 12 12 12 13
10 13 17 20 22 22 20 17 14 12 10 8 7 7 7 7 6 7 11 20 32 43 51 53 51 50 48 44 35 25 16 10 9 9 10 12 13 15 19 26 32 36 37 37 35 33 30 28 26 24 22 21 19 17 16 16 15 15 15 15 14 13 13 13 12 12 12 12 13
10 13 17 20 22 21 20 17 14 11 9 8 7 7 7 6 6 8 13 23 36 47 54 53 47 43 40 36 27 18 9 3 1 2 4 8 10 11 13 18 27 33 37 38 38 36 33 29 26 24 22 21 19 18 17 16 16 16 16 16 15 14 13 12 12 12 12 12 13
10 13 17 20 22 21 19 16 13 11 9 8 7 7 7 6 6 9 16 26 39 49 54 50 42 38 35 31 23 15 6 -1 -5 -6 -3 2 6 8 9 10 17 24 31 34 36 37 36 33 29 26 23 21 19 18 17 16 15 15 15 15 14 13 12 12 11 11 11 12 13
10 13 17 20 21 21 18 15 12 10 9 8 7 7 7 6 6 10 17 28 43 51 52 46 39 35 32 28 21 14 7 -2 -8 -10 -9 -5 3 6 6 6 9 15 21 24 27 30 32 34 32 30 26 23 20 18 16 14 14 14 14 14 14 13 13 12 11 11 11 12 13
10 13 16 20 21 20 17 14 12 10 9 8 7 7 7 6 6 10 18 30 45 51 50 43 37 34 31 28 21 15 9 1 -6 -10 -11 -8 1 5 6 6 7 9 11 12 14 17 21 26 29 30 29 26 23 20 18 16 16 16 15 15 15 14 14 13 12 12 11 12 13
10 13 16 20 20 19 17 14 11 10 8 8 8 7 7 6 7 11 19 31 44 50 50 42 36 32 29 27 22 18 12 6 -2 -7 -9 -8 0 5 7 7 6 5 5 5 6 8 11 16 21 24 26 26 24 23 21 19 19 18 18 17 16 15 14 13 12 12 12 12 14
10 12 16 19 20 19 16 13 11 10 8 8 8 7 7 6 7 12 20 31 43 49 49 43 36 31 27 25 24 21 17 11 5 -0 -4 -5 -1 3 5 4 3 3 4 5 5 6 7 9 13 17 21 23 23 23 23 22 21 20 19 18 16 15 14 13 12 12 12 13 14
9 12 15 19 19 18 16 13 11 10 9 8 8 7 7 6 7 11 19 30 42 49 50 44 37 31 26 24 24 23 20 16 12 7 3 0 -0 1 1 -2 -2 1 4 7 9 9 8 8 10 12 15 19 20 21 21 21 20 19 19 18 17 16 15 14 13 13 14 14 15
9 12 15 18 19 18 16 13 11 10 9 8 8 8 7 6 6 10 17 28 41 49 51 46 38 31 26 23 23 23 22 19 16 13 10 6 3 0 -3 -6 -6 -2 4 11 13 12 11 10 12 12 12 14 16 17 17 17 17 17 18 19 19 18 17 16 15 15 15 15 16
9 11 14 17 18 17 16 13 11 10 9 8 8 8 7 6 6 9 16 27 39 48 51 47 40 33 26 22 22 22 22 21 18 17 15 12 7 1 -4 -8 -9 -5 2 13 15 13 11 11 14 14 13 12 13 13 13 13 14 14 15 17 18 18 18 17 16 16 16 16 16
9 11 13 16 17 17 15 13 12 10 9 8 8 7 7 7 6 8 14 24 36 46 51 50 43 35 28 23 22 21 21 20 19 18 18 18 11 3 -3 -6 -8 -7 -1 10 14 13 11 10 13 14 15 14 14 12 9 8 10 11 13 15 16 17 18 17 17 17 17 17 16
8 10 13 16 17 16 16 14 12 11 9 8 8 8 7 7 7 8 12 21 33 43 50 51 46 39 32 26 22 20 19 18 17 16 17 18 12 4 -2 -3 -4 -4 -1 8 13 13 11 9 9 10 11 12 13 12 9 6 7 8 10 13 15 16 17 17 17 17 17 17 16
8 10 12 15 16 16 16 14 12 11 9 8 8 8 8 7 7 8 11 17 29 40 48 52 49 43 36 29 24 21 18 16 15 14 14 16 13 5 -2 -4 -4 -2 3 12 13 13 12 10 8 6 6 6 7 7 8 8 7 7 8 10 12 14 15 16 16 17 17 17 16
8 10 11 14 16 16 15 14 13 11 10 9 8 8 8 8 7 7 9 13 23 35 46 53 52 47 40 33 28 23 19 16 14 12 12 15 14 7 -2 -8 -9 -5 3 13 14 12 11 11 9 6 3 1 -0 1 4 7 8 8 8 9 10 11 12 13 14 15 15 16 16
8 9 11 13 15 15 15 14 13 12 10 9 8 8 8 8 8 7 8 10 18 29 41 51 52 50 45 39 32 26 22 18 15 13 13 14 14 9 1 -8 -14 -11 -2 9 12 12 11 9 8 5 2 -1 -1 0 3 5 8 9 10 11 11 11 11 12 13 14 14 15 15
8 9 11 13 14 15 15 15 13 12 11 9 8 8 8 8 8 7 7 8 15 24 34 45 50 52 49 43 36 30 25 21 18 16 15 16 16 13 6 -4 -13 -14 -8 1 8 11 11 10 8 6 4 3 4 5 7 9 10 12 13 14 13 13 12 12 12 13 14 14 15
8 9 10 12 13 14 15 14 13 12 11 10 9 8 8 8 8 8 8 8 11 17 26 37 47 52 52 47 41 35 29 24 21 19 18 18 19 17 12 3 -10 -13 -9 -5 2 7 11 10 9 7 6 5 6 8 10 13 14 15 16 16 16 15 14 13 12 13 13 14 15
8 9 10 11 13 14 14 14 13 13 12 10 9 9 8 8 8 8 7 7 8 13 20 30 41 48 52 51 45 39 33 28 25 22 20 19 20 21 20 14 -3 -10 -8 -3 1 5 8 10 8 6 5 3 3 4 8 13 16 18 19 19 18 17 16 15 14 13 13 14 15
9 9 10 11 12 13 13 14 13 13 12 11 10 9 8 8 8 8 8 7 8 11 16 23 32 41 48 51 48 43 38 33 29 26 23 21 21 23 25 25 10 -3 -9 -2 4 7 8 10 9 7 4 2 0 1 5 10 15 19 20 20 19 19 17 16 15 14 14 14 15
9 9 9 10 11 12 13 13 13 13 12 12 10 9 8 8 8 8 8 8 8 10 13 18 26 34 41 47 48 46 42 36 32 29 27 24 23 24 26 29 26 12 -2 -5 6 12 15 16 15 12 9 5 3 4 6 10 13 16 19 20 19 19 18 17 16 15 15 15 16
9 9 9 10 11 12 12 13 13 13 13 12 11 10 9 8 8 8 8 8 8 9 11 15 21 27 34 40 44 45 43 39 35 32 29 27 26 25 26 29 34 25 9 -7 5 14 22 26 24 20 15 10 8 8 9 11 13 15 17 19 19 18 18 18 17 16 16 16 16
10 9 8 9 10 11 12 13 13 13 13 12 11 10 9 9 8 8 8 8 8 9 10 12 17 22 28 34 39 42 42 40 36 33 30 28 27 25 25 26 32 29 18 -3 1 10 22 31 30 25 19 14 11 10 11 12 13 14 16 19 19 19 19 19 18 17 16 16 17
10 9 8 8 9 10 11 12 12 13 13 13 12 11 10 9 8 8 8 8 9 9 9 10 14 19 24 30 35 38 40 40 37 33 30 28 26 25 24 23 26 26 23 11 6 11 19 29 28 24 19 16 14 14 14 14 15 15 17 19 20 21 21 20 18 18 17 17 17
11 9 8 8 8 9 10 12 12 13 13 13 12 12 11 9 8 8 8 8 9 9 9 9 12 15 20 25 30 35 38 40 38 36 32 29 27 25 24 23 23 23 23 21 15 15 18 25 24 21 18 17 17 17 18 18 18 17 17 18 21 22 23 21 20 19 18 18 18
11 10 9 8 8 8 9 11 12 13 13 13 12 12 11 10 9 8 8 8 8 9 9 9 10 12 15 20 25 30 35 38 39 38 35 32 29 27 25 25 24 23 22 23 21 20 20 23 22 21 19 18 19 20 20 20 20 19 18 18 21 23 24 23 22 20 19 19 19
11 10 9 8 8 8 8 10 11 12 12 13 12 12 12 11 10 8 8 8 8 8 9 9 9 10 12 16 21 26 31 35 38 38 37 34 31 28 26 26 25 24 23 22 21 21 21 21 22 21 20 19 20 20 21 21 21 19 18 18 20 22 24 25 23 22 21 20 20
11 10 9 8 7 7 8 9 10 11 12 13 13 12 12 11 10 9 8 8 8 8 8 8 8 8 10 13 16 21 26 31 35 38 39 37 33 30 27 25 24 23 22 21 20 20 19 19 20 20 20 20 19 20 20 20 20 19 18 18 19 21 23 25 25 24 22 21 21
Height
5507 5501 5496 5491 5487 5482 5478 5473 5469 5465 5461 5457 5453 5449 5444 5440 5435 5431 5426 5421 5416 5411 5405 5400 5395 5389 5383 5376 5371 5365 5360 5355 5350 5347 5344 5341 5338 5336 5335 5334 5333 5333 5333 5333 5333 5334 5335 5336 5337 5338 5340 5340 5341 5342 5343 5345 5346 5347 5348 5349 5349 5349 5349 5349 5349 5350 5350 5351 5352
5504 5499 5494 5489 5484 5479 5475 5470 5466 5461 5457 5453 5449 5444 5440 5435 5431 5426 5421 5415 5410 5405 5399 5393 5387 5381 5375 5368 5362 5356 5350 5345 5340 5336 5333 5330 5327 5325 5324 5324 5324 5324 5324 5325 5325 5327 5328 5329 5331 5332 5334 5335 5336 5337 5338 5340 5341 5343 5344 5345 5345 5345 5345 5345 5345 5346 5347 5348 5349
5502 5496 5491 5486 5481 5476 5471 5467 5462 5458 5454 5449 5445 5440 5436 5431 5426 5421 5416 5410 5405 5399 5393 5386 5380 5373 5366 5359 5352 5346 5340 5335 5330 5325 5322 5319 5316 5315 5314 5314 5314 5315 5315 5316 5318 5319 5321 5323 5324 5326 5328 5329 5331 5332 5333 5335 5337 5339 5340 5341 5341 5341 5341 5341 5342 5342 5343 5344 5345
5500 5494 5489 5484 5478 5473 5469 5464 5459 5455 5450 5445 5441 5436 5431 5427 5422 5416 5411 5405 5399 5393 5386 5380 5372 5365 5358 5350 5343 5337 5331 5325 5320 5315 5312 5309 5307 5305 5304 5304 5305 5305 5307 5308 5310 5312 5314 5316 5318 5320 5322 5324 5325 5327 5329 5330 5333 5335 5337 5337 5337 5337 5337 5338 5338 5339 5340 5341 5342
5497 5492 5486 5481 5476 5470 5465 5460 5456 5451 5446 5442 5437 5432 5427 5422 5417 5412 5406 5400 5394 5387 5380 5373 5365 5357 5349 5342 5335 5328 5322 5316 5312 5307 5304 5301 5299 5297 5296 5295 5296 5297 5299 5300 5303 5305 5307 5310 5312 5315 5316 5318 5320 5322 5324 5326 5329 5331 5333 5333 5333 5333 5334 5334 5335 5336 5337 5337 5338
5495 5489 5483 5478 5472 5467 5462 5457 5452 5448 5443 5438 5434 5429 5424 5419 5413 5408 5402 5396 5389 5382 5375 5367 5358 5350 5341 5334 5327 5320 5314 5309 5305 5300 5297 5294 5292 5290 5289 5289 5289 5290 5291 5293 5296 5298 5301 5304 5307 5309 5311 5313 5315 5317 5320 5322 5325 5328 5329 5329 5329 5329 5330 5331 5332 5333 5333 5334 5335
5493 5487 5481 5475 5469 5464 5459 5454 5449 5445 5440 5435 5430 5425 5420 5415 5410 5404 5398 5391 5385 5377 5369 5360 5351 5342 5334 5326 5319 5313 5308 5303 5298 5295 5291 5288 5286 5285 5284 5283 5283 5284 5285 5287 5290 5293 5296 5299 5302 5304 5306 5308 5310 5313 5315 5319 5322 5324 5325 5325 5325 5325 5327 5328 5328 5329 5330 5331 5332
5490 5484 5479 5473 5467 5462 5457 5452 5447 5442 5437 5433 5428 5423 5417 5412 5406 5400 5394 5387 5380 5372 5363 5354 5344 5335 5327 5320 5313 5307 5302 5297 5293 5290 5286 5284 5282 5280 5279 5278 5278 5279 5280 5282 5285 5288 5291 5294 5297 5300 5302 5304 5306 5309 5313 5316 5319 5320 5320 5320 5321 5322 5323 5324 5325 5326 5327 5328 5329
5488 5482 5477 5471 5466 5460 5455 5450 5445 5440 5435 5430 5425 5420 5415 5409 5403 5397 5390 5383 5375 5366 5357 5347 5338 5330 5322 5315 5308 5302 5297 5292 5289 5285 5282 5280 5278 5276 5275 5275 5275 5275 5277 5279 5281 5284 5287 5290 5293 5295 5298 5300 5303 5306 5310 5313 5315 5316 5316 5316 5318 5319 5320 5321 5322 5323 5324 5325 5327
5487 5481 5476 5470 5464 5459 5454 5448 5443 5438 5433 5428 5423 5417 5412 5406 5400 5394 5387 5379 5370 5361 5351 5341 5332 5324 5317 5310 5304 5298 5293 5289 5285 5282 5280 5277 5275 5274 5273 5273 5273 5273 5275 5276 5279 5281 5284 5287 5289 5292 5295 5297 5300 5304 5307 5310 5311 5311 5312 5314 5315 5316 5317 5318 5319 5320 5322 5323 5324
5486 5480 5475 5469 5463 5458 5452 5447 5441 5436 5431 5426 5420 5415 5409 5404 5397 5390 5383 5375 5366 5356 5346 5336 5328 5320 5313 5307 5301 5295 5291 5287 5284 5281 5279 5276 5275 5273 5272 5272 5272 5272 5273 5275 5277 5279 5281 5284 5287 5290 5292 5295 5299 5302 5305 5306 5307 5308 5309 5311 5312 5314 5315 5315 5317 5318 5320 5321 5322
5485 5479 5473 5467 5462 5456 5450 5445 5440 5435 5429 5424 5418 5413 5407 5401 5395 5388 5380 5371 5361 5351 5342 5333 5325 5317 5311 5305 5300 5295 5291 5287 5284 5281 5279 5277 5275 5274 5273 5273 5273 5273 5273 5275 5276 5278 5280 5283 5285 5288 5291 5294 5297 5300 5302 5303 5304 5305 5307 5308 5310 5311 5312 5314 5315 5316 5317 5318 5320
5484 5478 5472 5466 5460 5455 5449 5444 5438 5433 5427 5422 5416 5410 5405 5399 5392 5385 5376 5367 5358 5348 5338 5330 5322 5316 5310 5305 5300 5296 5293 5290 5286 5284 5282 5280 5278 5277 5276 5275 5275 5275 5275 5275 5277 5278 5280 5282 5285 5287 5290 5293 5295 5297 5299 5300 5302 5303 5305 5306 5308 5309 5310 5311 5313 5314 5315 5316 5317
5483 5477 5471 5465 5459 5453 5448 5442 5437 5431 5425 5420 5414 5408 5402 5396 5389 5382 5373 5364 5354 5345 5335 5328 5321 5315 5310 5306 5302 5298 5295 5292 5290 5287 5285 5283 5281 5280 5279 5278 5277 5277 5277 5277 5278 5279 5281 5283 5285 5287 5289 5292 5294 5295 5297 5298 5300 5301 5303 5304 5306 5307 5309 5310 5310 5311 5313 5314 5315
5481 5475 5470 5463 5458 5452 5446 5440 5435 5430 5424 5418 5412 5406 5400 5394 5387 5379 5370 5361 5351 5342 5333 5326 5321 5316 5311 5308 5304 5301 5298 5295 5293 5291 5289 5287 5285 5283 5282 5281 5280 5280 5280 5280 5280 5281 5282 5284 5285 5287 5289 5291 5293 5295 5296 5297 5299 5300 5301 5302 5304 5305 5307 5307 5308 5309 5310 5312 5313
5480 5474 5468 5462 5456 5450 5445 5439 5433 5428 5422 5416 5410 5404 5398 5391 5384 5376 5367 5358 5349 5340 5332 5326 5321 5317 5313 5310 5306 5304 5301 5298 5296 5294 5292 5290 5289 5288 5286 5284 5283 5282 5282 5282 5282 5283 5284 5285 5286 5288 5289 5291 5292 5294 5295 5296 5297 5298 5300 5301 5302 5304 5305 5305 5306 5308 5309 5310 5311
5479 5473 5467 5461 5455 5449 5443 5437 5432 5426 5420 5414 5408 5402 5396 5390 5382 5374 5365 5356 5347 5339 5332 5326 5322 5318 5315 5311 5309 5306 5303 5301 5299 5297 5295 5294 5293 5292 5290 5289 5287 5286 5285 5285 5285 5285 5286 5286 5287 5288 5289 5290 5292 5293 5294 5295 5296 5297 5298 5300 5301 5302 5303 5304 5305 5306 5307 5308 5310
5478 5472 5466 5460 5454 5448 5442 5436 5430 5425 5419 5413 5407 5401 5395 5388 5380 5372 5364 5355 5346 5338 5332 5327 5323 5319 5316 5313 5310 5308 5305 5303 5301 5299 5297 5297 5297 5296 5294 5292 5291 5290 5289 5288 5288 5288 5288 5288 5288 5289 5290 5290 5291 5293 5294 5295 5296 5297 5298 5299 5300 5301 5302 5303 5304 5305 5306 5307 5308
5477 5471 5465 5459 5453 5447 5441 5435 5430 5424 5418 5412 5406 5400 5393 5386 5379 5371 5362 5354 5345 5339 5333 5328 5324 5320 5317 5315 5312 5310 5308 5305 5303 5300 5299 5299 5299 5298 5296 5295 5293 5292 5291 5291 5290 5290 5290 5290 5290 5290 5290 5291 5292 5293 5294 5295 5295 5296 5297 5298 5299 5300 5301 5301 5302 5303 5304 5305 5306
5476 5470 5464 5458 5452 5446 5440 5435 5429 5423 5417 5411 5405 5399 5392 5385 5378 5370 5362 5354 5346 5339 5333 5329 5325 5321 5319 5316 5314 5312 5310 5307 5305 5302 5301 5300 5300 5299 5298 5296 5295 5294 5293 5293 5292 5292 5292 5292 5291 5291 5292 5292 5293 5293 5294 5295 5295 5296 5297 5298 5298 5299 5300 5300 5301 5302 5302 5304 5305
5476 5470 5464 5458 5452 5446 5440 5434 5428 5423 5417 5411 5405 5398 5392 5385 5378 5370 5362 5354 5346 5339 5334 5329 5326 5323 5320 5318 5315 5313 5311 5309 5306 5304 5303 5301 5301 5300 5299 5298 5297 5296 5295 5294 5294 5293 5293 5293 5293 5293 5293 5293 5294 5294 5295 5295 5296 5296 5297 5297 5297 5298 5298 5299 5300 5300 5301 5302 5304
5475 5470 5464 5457 5451 5445 5440 5434 5428 5422 5417 5411 5405 5398 5392 5385 5378 5370 5362 5354 5347 5340 5335 5330 5326 5323 5321 5319 5317 5315 5312 5310 5308 5306 5305 5303 5302 5301 5300 5299 5298 5297 5296 5296 5295 5294 5294 5294 5294 5294 5294 5294 5295 5295 5295 5295 5296 5296 5296 5296 5297 5297 5298 5298 5299 5300 5300 5301 5302
5475 5469 5463 5457 5451 5445 5440 5434 5428 5423 5417 5411 5405 5399 5392 5385 5378 5371 5363 5355 5348 5341 5335 5331 5327 5324 5322 5320 5318 5315 5314 5312 5310 5308 5307 5305 5304 5303 5301 5300 5299 5298 5297 5297 5297 5296 5295 5295 5295 5295 5295 5295 5295 5296 5296 5296 5296 5296 5296 5296 5296 5297 5297 5297 5298 5299 5300 5300 5301
5475 5469 5463 5457 5451 5445 5440 5434 5429 5423 5417 5412 5406 5400 5393 5386 5379 5372 5365 5357 5349 5342 5337 5332 5328 5325 5322 5320 5318 5316 5315 5313 5311 5310 5309 5307 5305 5304 5303 5301 5300 5299 5298 5298 5298 5297 5297 5296 5295 5295 5296 5296 5296 5297 5297 5297 5296 5296 5296 5296 5296 5296 5296 5297 5297 5298 5298 5299 5299
5475 5469 5463 5457 5451 5446 5440 5435 5429 5424 5418 5413 5406 5400 5394 5388 5381 5374 5366 5358 5351 5344 5338 5333 5329 5326 5323 5321 5319 5317 5316 5314 5313 5311 5310 5309 5307 5305 5304 5303 5302 5301 5300 5299 5299 5299 5298 5298 5297 5296 5296 5297 5297 5297 5297 5297 5297 5296 5296 5296 5296 5296 5296 5296 5297 5297 5297 5298 5298
5475 5469 5463 5457 5452 5446 5440 5435 5430 5424 5419 5413 5407 5401 5395 5389 5382 5375 5368 5360 5353 5346 5340 5335 5330 5327 5324 5322 5320 5318 5316 5315 5314 5313 5311 5310 5309 5307 5306 5304 5303 5302 5301 5300 5300 5300 5300 5299 5299 5298 5297 5297 5297 5297 5297 5297 5296 5296 5296 5296 5296 5296 5296 5296 5296 5296 5296 5296 5296
5475 5470 5464 5458 5452 5446 5441 5435 5430 5425 5419 5414 5408 5402 5396 5390 5383 5376 5370 5362 5355 5348 5342 5336 5332 5329 5325 5323 5321 5319 5317 5316 5315 5314 5312 5311 5310 5309 5307 5306 5304 5303 5303 5302 5302 5301 5301 5300 5300 5299 5299 5298 5298 5298 5297 5297 5297 5296 5296 5296 5296 5296 5296 5296 5296 5296 5295 5295 5295
5476 5470 5464 5458 5452 5447 5441 5436 5430 5425 5420 5415 5409 5403 5397 5391 5384 5378 5371 5365 5357 5350 5344 5339 5334 5330 5327 5324 5322 5320 5318 5317 5315 5315 5313 5312 5311 5310 5309 5307 5306 5305 5304 5304 5303 5302 5302 5301 5301 5300 5300 5300 5299 5299 5298 5297 5297 5297 5296 5296 5296 5296 5295 5295 5295 5295 5295 5295 5295
5476 5470 5464 5459 5453 5448 5442 5436 5431 5426 5421 5415 5410 5404 5398 5392 5385 5379 5373 5366 5360 5354 5347 5341 5336 5331 5328 5325 5323 5321 5319 5318 5316 5315 5314 5313 5312 5311 5310 5308 5307 5307 5306 5305 5305 5304 5303 5302 5301 5300 5300 5300 5299 5298 5298 5297 5297 5296 5296 5296 5295 5295 5295 5295 5295 5295 5294 5294 5294
5476 5471 5465 5460 5454 5448 5443 5437 5432 5427 5421 5416 5410 5404 5399 5393 5387 5381 5375 5369 5362 5356 5350 5344 5338 5334 5330 5327 5324 5322 5320 5319 5317 5316 5315 5314 5313 5311 5310 5309 5309 5308 5308 5306 5305 5305 5303 5302 5301 5300 5300 5299 5299 5298 5298 5297 5297 5296 5296 5295 5295 5295 5295 5294 5294 5294 5294 5293 5293
5477 5471 5466 5460 5455 5449 5444 5438 5433 5427 5422 5417 5411 5405 5400 5394 5388 5383 5377 5371 5365 5358 5352 5346 5341 5336 5332 5328 5325 5323 5321 5320 5318 5316 5315 5314 5313 5312 5311 5310 5309 5310 5309 5307 5306 5305 5304 5303 5302 5300 5300 5299 5298 5297 5297 5296 5296 5296 5295 5295 5295 5294 5294 5294 5294 5293 5293 5293 5293
5477 5472 5467 5461 5455 5450 5445 5439 5434 5429 5423 5418 5413 5407 5401 5396 5390 5385 5379 5373 5367 5360 5355 5349 5344 5339 5334 5330 5327 5324 5322 5320 5319 5317 5316 5315 5314 5313 5312 5311 5310 5311 5310 5307 5306 5305 5305 5304 5303 5301 5300 5299 5297 5296 5296 5295 5295 5295 5295 5294 5294 5294 5293 5293 5293 5293 5293 5293 5292
5478 5473 5468 5462 5457 5451 5446 5440 5435 5430 5425 5420 5414 5409 5404 5398 5393 5387 5381 5375 5369 5363 5357 5352 5346 5341 5336 5332 5329 5326 5323 5321 5320 5318 5316 5315 5314 5313 5312 5311 5310 5310 5311 5309 5306 5305 5304 5303 5303 5301 5300 5299 5298 5296 5295 5295 5294 5294 5294 5294 5294 5293 5293 5293 5293 5293 5293 5293 5292
5479 5474 5469 5464 5458 5453 5447 5442 5437 5431 5426 5421 5416 5411 5406 5401 5395 5390 5384 5378 5372 5366 5360 5354 5349 5343 5339 5335 5331 5328 5325 5322 5320 5319 5317 5315 5314 5313 5312 5311 5310 5310 5311 5311 5306 5304 5303 5303 5302 5301 5300 5299 5298 5296 5295 5295 5294 5294 5293 5293 5293 5293 5293 5293 5293 5293 5293 5292 5292
5480 5475 5470 5465 5460 5454 5449 5444 5438 5433 5428 5423 5418 5414 5408 5403 5398 5392 5387 5381 5375 5368 5362 5357 5351 5345 5340 5336 5332 5329 5326 5324 5321 5319 5318 5316 5315 5313 5312 5311 5310 5310 5311 5312 5307 5304 5302 5301 5301 5300 5299 5298 5297 5296 5295 5295 5294 5293 5293 5293 5293 5292 5292 5292 5292 5292 5292 5292 5292
5481 5476 5471 5466 5461 5456 5450 5445 5440 5435 5430 5425 5420 5415 5410 5405 5400 5395 5390 5384 5378 5372 5366 5360 5354 5348 5343 5338 5334 5330 5327 5325 5322 5320 5318 5316 5315 5314 5312 5311 5310 5310 5310 5310 5308 5305 5302 5300 5300 5299 5299 5298 5297 5296 5295 5294 5294 5293 5293 5293 5292 5292 5292 5292 5292 5292 5292 5292 5292
5482 5477 5472 5467 5462 5457 5452 5447 5442 5437 5432 5427 5422 5417 5413 5408 5403 5397 5392 5386 5381 5375 5369 5364 5358 5352 5347 5342 5337 5333 5329 5326 5323 5321 5319 5317 5315 5314 5312 5311 5310 5309 5308 5307 5307 5306 5303 5300 5300 5299 5298 5297 5296 5296 5295 5294 5294 5293 5293 5292 5292 5292 5291 5291 5291 5291 5291 5291 5292
5482 5478 5473 5468 5464 5459 5454 5449 5444 5439 5434 5429 5424 5419 5414 5409 5405 5400 5394 5389 5384 5378 5373 5367 5361 5356 5351 5345 5340 5335 5331 5328 5325 5322 5320 5318 5316 5314 5313 5311 5310 5309 5308 5307 5306 5306 5304 5301 5300 5299 5298 5297 5296 5295 5295 5294 5293 5293 5292 5292 5292 5291 5291 5291 5291 5291 5291 5291 5292
5483 5479 5474 5469 5465 5460 5455 5450 5445 5440 5435 5430 5425 5420 5415 5411 5406 5401 5396 5391 5386 5381 5375 5370 5365 5360 5354 5349 5344 5339 5335 5331 5327 5324 5322 5319 5317 5315 5313 5312 5310 5309 5308 5306 5305 5305 5303 5301 5300 5299 5298 5297 5296 5295 5295 5294 5293 5293 5292 5292 5291 5291 5291 5290 5290 5290 5291 5291 5292
5484 5479 5475 5470 5466 5461 5456 5452 5447 5442 5437 5432 5427 5422 5418 5413 5408 5403 5398 5393 5388 5383 5378 5374 5369 5363 5358 5353 5348 5343 5338 5334 5330 5327 5324 5321 5319 5316 5315 5313 5311 5309 5308 5306 5305 5304 5302 5301 5300 5299 5298 5297 5296 5295 5295 5294 5293 5293 5292 5292 5291 5291 5290 5290 5290 5290 5290 5291 5292
5484 5480 5475 5471 5467 5462 5458 5453 5449 5444 5439 5434 5429 5425 5420 5415 5410 5405 5400 5395 5390 5385 5381 5376 5371 5366 5361 5356 5351 5347 5342 5338 5334 5330 5326 5323 5320 5318 5316 5314 5312 5310 5309 5307 5305 5304 5303 5301 5300 5300 5298 5297 5296 5295 5295 5294 5293 5293 5292 5292 5291 5291 5290 5290 5290 5290 5290 5291 5291